Weather in Nowy Targ

Poland     49°28′35″N   20°01′45″E
temp.,
°C
wind,
m/s
gust,
m/s
humid.,
%
clouds,
%
prec.,
mm/h
press.,
hPa
HPBL,
m
9 may, sun
sun923:000s11775 0.0 102310
02:000ssw11755 0.0 102411
05:000se217571 0.0 102311
08:00+8sse125124 0.0 1021292
11:00+15wsw354325 0.0 10191228
14:00+17w45425 0.0 10181391
17:00+17w345073 0.0 1017775
20:00+10ssw118247 0.0 101811
10 may, mon
mon1023:00+5s22875 0.0 102013
02:00+4s228446 0.0 102013
05:00+4ssw11795 0.0 101912
08:00+12s12565 0.0 1017207
11:00+20s24365 0.0 10151041
14:00+23wsw2433100 0.0 10141592
17:00+21sw344390 0.0 1014782
20:00+13ssw117629 0.0 101613
11 may, tue
tue1123:00+9s11897 0.0 101711
02:00+8sse22890 0.0 101612
05:00+8sse22910 0.0 101512
08:00+16sse12680 0.0 1013225
11:00+23ssw23410 0.0 10111137
14:00+25wnw12340 0.0 10102028
17:00+22w45460 0.0 10091036
20:00+15ese22750 0.0 100914
12 may, wed
wed1223:00+11s11900 0.0 101011
02:00+10s11914 0.0 100911
05:00+9sse119085 0.0 100811
08:00+15se12694 0.0 1006251
11:00+21ene22500 0.0 10041388
14:00+21ese554216 0.1 10021769
17:00+20e575323 0.0 10011574
20:00+13ene369198 0.7 1002174
13 may, thu
thu1323:00+9ene2397100 0.0 100269
02:00+8e2296100 0.1 100256
05:00+7ene119798 0.3 100028
08:00+10ne0195100 0.8 1000158
11:00+10w3694100 1.3 1001439
14:00+11wnw3784100 1.8 1001747
17:00+12w3777100 0.5 1002842
20:00+10w1286100 0.7 100392